Regional Weather Roundup
Issued by NWS

Home | Current Version | Previous Version | Graphics & Text | Print | Product List | Glossary On
Versions: 1 2 3 4 5 6 7 8 9 10 11 12 13 14 15 16 17 18 19 20 21 22 23 24 25 26 27 28 29 30 31 32 33 34 35 36 37 38 39 40 41 42 43 44 45 46 47 48 49 50
000
ASUS45 KBOI 011110
RWRID

IDAHO REGIONAL WEATHER ROUNDUP
NATIONAL WEATHER SERVICE BOISE ID
500 AM MDT WED JUL 01 2015

NOTE: "FAIR" INDICATES FEW OR NO CLOUDS BELOW 12000 FEET
WITH NO SIGNIFICANT WEATHER AND/OR OBSTRUCTIONS TO VISIBILITY

IDZ012-014-011200-
SOUTHWEST IDAHO


CITY           SKY/WX    TMP DP  RH WIND       PRES   REMARKS
BOISE          CLEAR     73  52  47 CALM      29.99R
CALDWELL       CLEAR     73  46  38 W10       29.98S
MOUNTAIN HOME  CLEAR     68  48  49 W3        29.98R
$$

IDZ016-017-011200-
SOUTHCENTRAL IDAHO


CITY           SKY/WX    TMP DP  RH WIND       PRES   REMARKS
BURLEY         MOCLDY    68  56  65 CALM      30.05R
JEROME         PTCLDY    72  52  49 S7        30.05S
TWIN FALLS     PTCLDY    77  49  37 SW13      30.03R
$$

IDZ019>023-011200-
SOUTHEAST IDAHO


CITY           SKY/WX    TMP DP  RH WIND       PRES   REMARKS
IDAHO FALLS    MOCLDY    62  56  80 CALM      30.10S
POCATELLO      CLEAR     64  57  78 S6        30.09S
REXBURG        MOCLDY    59  55  87 NE5       30.11S
$$

IDZ006-010-011-018-031-032-011200-
CENTRAL IDAHO MOUNTAINS


CITY           SKY/WX    TMP DP  RH WIND       PRES   REMARKS
MCCALL         CLEAR     60  51  72 CALM      30.14S
HAILEY         CLEAR     63  45  51 NW12      30.16S
STANLEY          N/A     45  37  73 CALM      30.29R
SALMON         CLEAR     59  52  77 CALM      30.09S
CHALLIS        CLEAR     64  46  52 CALM      30.15S
$$

IDZ002-004-006-007-026-011200-
NORTHERN IDAHO


CITY           SKY/WX    TMP DP  RH WIND       PRES   REMARKS
LEWISTON       CLEAR     70  44  39 CALM      29.95S
LOWELL           N/A     64  57  78 N3        30.02R
COEUR D`ALENE  CLEAR     63  52  67 CALM      29.97S
MULLAN PASS    CLEAR     64  41  42 NW3       30.21F
$$


USA.gov is the U.S. government's official web portal to all federal, state and local government web resources and services.